Location: Newark
(43.0000°N, 1.6781°W)
Time: 05:17:17
(UTC+00:00)

Explorer 7 - Pass Details

Date: 27 April 2021
Orbit: 484 x 677 km, 50.3° (Epoch: 07 May)

Event Time Altitude Azimuth Distance (km) Brightness Sun altitude
Rises 21:04:09 0° 297° (WNW) 2,666 11.7 -19.6°
Reaches altitude 10° 21:06:28 10° 306° (NW) 1,806 10.6 -19.9°
Maximum altitude 21:10:16 35° 14° (NNE) 922 8.2 -20.4°
Enters shadow 21:12:17 23° 63° (ENE) 1,258 8.4 -20.6°
Drops below altitude 10° 21:14:17 10° 80° (E) 1,916 - -20.9°
Sets 21:16:48 0° 90° (E) 2,854 - -21.2°
